This is the latest recevied weather packets stored in our database for station/object WV8BRW. If no packets are shown the sender has not sent any weather packets the latest 10 day(s).
| Time | Temp. | Humidity | Pressure | Rain* | Wind** | Luminosity | Snow |
|---|---|---|---|---|---|---|---|
| 1778107124 | 13.89° C | 95% | 1011.2 hPa | 0 mm | - | 26 W/m² | - |
| 1778106819 | 14.44° C | 94% | 1011 hPa | 0 mm | - | 21 W/m² | - |
| 1778106517 | 13.89° C | 92% | 1011.2 hPa | 0 mm | - | 22 W/m² | - |
| 1778106212 | 14.44° C | 94% | 1011 hPa | 0 mm | - | 35 W/m² | - |
| 1778105910 | 14.44° C | 92% | 1010.8 hPa | 0 mm | - | 39 W/m² | - |
| 1778105608 | 14.44° C | 89% | 1010.6 hPa | 0 mm | - | 36 W/m² | - |
| 1778105305 | 14.44° C | 90% | 1010.8 hPa | 0 mm | - | 49 W/m² | - |
| 1778105000 | 14.44° C | 89% | 1010.8 hPa | 0 mm | - | 58 W/m² | - |
| 1778104697 | 14.44° C | 91% | 1010.7 hPa | 0 mm | - | 43 W/m² | - |
| 1778104393 | 14.44° C | 90% | 1010.4 hPa | 0 mm | - | 56 W/m² | - |
| 1778104089 | 15° C | 92% | 1010.4 hPa | 0 mm | - | 75 W/m² | - |
| 1778103786 | 15° C | 92% | 1010.3 hPa | 0 mm | - | 85 W/m² | - |
| 1778103484 | 15° C | 91% | 1010.5 hPa | 0 mm | - | 97 W/m² | - |
| 1778103181 | 15° C | 92% | 1010.2 hPa | 0 mm | - | 108 W/m² | - |
| 1778102878 | 15° C | 92% | 1010.2 hPa | 0 mm | - | 75 W/m² | - |
| 1778102574 | 15° C | 92% | 1010.3 hPa | 0 mm | - | 64 W/m² | - |
| 1778102269 | 15° C | 93% | 1010.4 hPa | 0 mm | - | 80 W/m² | - |
| 1778101966 | 15° C | 92% | 1010.1 hPa | 0 mm | - | 92 W/m² | - |
| 1778101663 | 14.44° C | 94% | 1010.4 hPa | 0 mm | - | 123 W/m² | - |
| 1778101360 | 14.44° C | 95% | 1010.6 hPa | 0 mm | - | 132 W/m² | - |
| 1778101057 | 14.44° C | 94% | 1010.5 hPa | 0 mm | - | 69 W/m² | - |
| 1778100752 | 14.44° C | 93% | 1010.5 hPa | 0 mm | - | 63 W/m² | - |
| 1778100450 | 14.44° C | 94% | 1010.7 hPa | 0 mm | - | 62 W/m² | - |
| 1778100147 | 15° C | 94% | 1010.6 hPa | 0 mm | - | 69 W/m² | - |
| 1778099844 | 15° C | 93% | 1010.4 hPa | 0 mm | - | 109 W/m² | - |
* Rain latest hour (hover to see other rain measurements)
** Current wind speed in m/s (hover to see current wind gust speed)